Stündliche Wetter Voorschoten

Heute, 1 Oktober, Donnerstag

Zeit Temperatur Niederschläge Wind Luftdruck Luftfeuchtigkeit
00:00 +15°C° 0 mm 6 m/S 754 mmHg 87%
01:00 +15°C° 0 mm 6 m/S 753 mmHg 86%
02:00 +15°C° 0 mm 6 m/S 752 mmHg 86%
03:00 +14°C° 0 mm 6 m/S 751 mmHg 86%
04:00 +14°C° 0 mm 6 m/S 751 mmHg 85%
05:00 +14°C° 0 mm 6 m/S 750 mmHg 85%
06:00 +14°C° 0 mm 6 m/S 750 mmHg 84%
07:00 +14°C° 0.4 mm 7 m/S 749 mmHg 85%
08:00 +14°C° 0.4 mm 7 m/S 749 mmHg 86%
09:00 +14°C° 0.4 mm 7 m/S 748 mmHg 87%
10:00 +14°C° 1.1 mm 7 m/S 748 mmHg 88%
11:00 +14°C° 1.1 mm 7 m/S 748 mmHg 90%
12:00 +14°C° 1.1 mm 7 m/S 748 mmHg 91%
13:00 +14°C° 1.5 mm 7 m/S 748 mmHg 90%
14:00 +12°C° 1.5 mm 7 m/S 747 mmHg 89%
15:00 +13°C° 1.5 mm 6 m/S 747 mmHg 87%
16:00 +13°C° 0.6 mm 6 m/S 748 mmHg 85%
17:00 +13°C° 0.6 mm 5 m/S 748 mmHg 84%
18:00 +13°C° 0.6 mm 4 m/S 748 mmHg 82%
19:00 +12°C° 0.3 mm 4 m/S 748 mmHg 82%
20:00 +12°C° 0.3 mm 4 m/S 749 mmHg 82%
21:00 +11°C° 0.3 mm 4 m/S 749 mmHg 81%
22:00 +11°C° 0 mm 4 m/S 748 mmHg 81%
23:00 +11°C° 0 mm 4 m/S 748 mmHg 81%

Morgen, 2 Oktober, Freitag

Zeit Temperatur Niederschläge Wind Luftdruck Luftfeuchtigkeit
00:00 +10°C° 0 mm 4 m/S 748 mmHg 80%
01:00 +10°C° 0 mm 4 m/S 748 mmHg 82%
02:00 +8°C° 0 mm 4 m/S 747 mmHg 84%
03:00 +8°C° 0 mm 4 m/S 747 mmHg 86%
04:00 +8°C° 0 mm 4 m/S 747 mmHg 85%
05:00 +8°C° 0 mm 5 m/S 747 mmHg 85%
06:00 +8°C° 0 mm 5 m/S 746 mmHg 85%
07:00 +9°C° 0 mm 6 m/S 746 mmHg 81%
08:00 +10°C° 0 mm 6 m/S 746 mmHg 77%
09:00 +13°C° 0 mm 6 m/S 746 mmHg 73%
10:00 +14°C° 0 mm 7 m/S 746 mmHg 70%
11:00 +15°C° 0 mm 7 m/S 746 mmHg 67%
12:00 +16°C° 0 mm 7 m/S 746 mmHg 64%
13:00 +16°C° 0 mm 6 m/S 746 mmHg 66%
14:00 +16°C° 0 mm 6 m/S 745 mmHg 69%
15:00 +16°C° 0 mm 6 m/S 745 mmHg 71%
16:00 +15°C° 0 mm 6 m/S 745 mmHg 71%
17:00 +15°C° 0 mm 7 m/S 745 mmHg 71%
18:00 +15°C° 0 mm 7 m/S 745 mmHg 71%
19:00 +15°C° 0 mm 7 m/S 744 mmHg 71%
20:00 +15°C° 0 mm 7 m/S 744 mmHg 70%
21:00 +15°C° 0 mm 7 m/S 744 mmHg 69%
22:00 +15°C° 0 mm 7 m/S 743 mmHg 73%
23:00 +15°C° 0 mm 8 m/S 743 mmHg 77%

übermorgen, 3 Oktober, Samstag

Zeit Temperatur Niederschläge Wind Luftdruck Luftfeuchtigkeit
00:00 +13°C° 0 mm 8 m/S 742 mmHg 81%
01:00 +13°C° 0 mm 8 m/S 742 mmHg 82%
02:00 +13°C° 0 mm 8 m/S 742 mmHg 82%
03:00 +13°C° 0 mm 8 m/S 741 mmHg 83%
04:00 +13°C° 0 mm 8 m/S 741 mmHg 83%
05:00 +14°C° 0 mm 7 m/S 741 mmHg 83%
06:00 +14°C° 0 mm 7 m/S 741 mmHg 83%
07:00 +14°C° 0 mm 6 m/S 741 mmHg 83%
08:00 +14°C° 0 mm 5 m/S 740 mmHg 83%
09:00 +14°C° 0 mm 5 m/S 740 mmHg 82%
10:00 +14°C° 0.1 mm 5 m/S 740 mmHg 82%
11:00 +15°C° 0.1 mm 4 m/S 740 mmHg 82%
12:00 +15°C° 0.1 mm 4 m/S 740 mmHg 82%
13:00 +14°C° 1.4 mm 5 m/S 740 mmHg 84%
14:00 +13°C° 1.4 mm 5 m/S 740 mmHg 86%
15:00 +11°C° 1.4 mm 6 m/S 739 mmHg 88%
16:00 +12°C° 0.6 mm 5 m/S 739 mmHg 88%
17:00 +12°C° 0.6 mm 5 m/S 739 mmHg 88%
18:00 +10°C° 0.6 mm 5 m/S 739 mmHg 88%
19:00 +10°C° 0 mm 5 m/S 739 mmHg 86%
20:00 +10°C° 0 mm 6 m/S 739 mmHg 85%
21:00 +10°C° 0 mm 6 m/S 739 mmHg 84%
22:00 +10°C° 0 mm 6 m/S 738 mmHg 84%
23:00 +10°C° 0 mm 7 m/S 737 mmHg 85%

4 Oktober, Sonntag

Zeit Temperatur Niederschläge Wind Luftdruck Luftfeuchtigkeit
00:00 +9°C° 0 mm 7 m/S 737 mmHg 86%
01:00 +10°C° 0.1 mm 6 m/S 736 mmHg 86%
02:00 +10°C° 0.1 mm 6 m/S 736 mmHg 87%
03:00 +10°C° 0.1 mm 6 m/S 735 mmHg 87%
04:00 +10°C° 0.1 mm 6 m/S 735 mmHg 87%
05:00 +9°C° 0.1 mm 7 m/S 735 mmHg 87%
06:00 +9°C° 0.1 mm 8 m/S 735 mmHg 87%
07:00 +8°C° 1.4 mm 10 m/S 735 mmHg 86%
08:00 +9°C° 1.4 mm 11 m/S 736 mmHg 86%
09:00 +9°C° 1.4 mm 13 m/S 737 mmHg 85%
10:00 +10°C° 0.6 mm 13 m/S 738 mmHg 79%
11:00 +10°C° 0.6 mm 13 m/S 739 mmHg 73%
12:00 +12°C° 0.6 mm 12 m/S 740 mmHg 67%
13:00 +12°C° 0 mm 12 m/S 740 mmHg 66%
14:00 +13°C° 0 mm 11 m/S 740 mmHg 65%
15:00 +13°C° 0 mm 11 m/S 741 mmHg 64%
16:00 +12°C° 0.1 mm 11 m/S 741 mmHg 66%
17:00 +12°C° 0.1 mm 10 m/S 741 mmHg 68%
18:00 +11°C° 0.1 mm 10 m/S 741 mmHg 71%
19:00 +11°C° 0 mm 10 m/S 742 mmHg 71%
20:00 +11°C° 0 mm 9 m/S 742 mmHg 71%
21:00 +11°C° 0 mm 9 m/S 743 mmHg 71%
22:00 +10°C° 0 mm 9 m/S 743 mmHg 71%
23:00 +9°C° 0 mm 10 m/S 743 mmHg 70%

5 Oktober, Montag

Zeit Temperatur Niederschläge Wind Luftdruck Luftfeuchtigkeit
00:00 +9°C° 0 mm 10 m/S 743 mmHg 70%
01:00 +9°C° 0.2 mm 10 m/S 744 mmHg 69%
02:00 +9°C° 0.2 mm 10 m/S 744 mmHg 68%
03:00 +9°C° 0.2 mm 10 m/S 744 mmHg 67%
04:00 +9°C° 0.2 mm 10 m/S 744 mmHg 69%
05:00 +9°C° 0.2 mm 10 m/S 744 mmHg 71%
06:00 +8°C° 0.2 mm 9 m/S 745 mmHg 73%
07:00 +9°C° 0 mm 10 m/S 745 mmHg 73%
08:00 +9°C° 0 mm 10 m/S 744 mmHg 73%
09:00 +9°C° 0 mm 10 m/S 744 mmHg 74%
10:00 +11°C° 0.2 mm 10 m/S 744 mmHg 74%
11:00 +11°C° 0.2 mm 10 m/S 744 mmHg 75%
12:00 +11°C° 0.2 mm 10 m/S 743 mmHg 75%
13:00 +11°C° 1.5 mm 10 m/S 743 mmHg 80%
14:00 +9°C° 1.5 mm 10 m/S 742 mmHg 85%
15:00 +10°C° 1.5 mm 9 m/S 742 mmHg 89%
16:00 +11°C° 0.7 mm 9 m/S 742 mmHg 88%
17:00 +12°C° 0.7 mm 8 m/S 742 mmHg 88%
18:00 +12°C° 0.7 mm 8 m/S 742 mmHg 87%
19:00 +12°C° 0.2 mm 8 m/S 743 mmHg 84%
20:00 +12°C° 0.2 mm 9 m/S 744 mmHg 81%
21:00 +12°C° 0.2 mm 9 m/S 744 mmHg 79%
22:00 +12°C° 0.3 mm 9 m/S 745 mmHg 80%
23:00 +12°C° 0.3 mm 9 m/S 745 mmHg 81%

6 Oktober, Dienstag

Zeit Temperatur Niederschläge Wind Luftdruck Luftfeuchtigkeit
00:00 +12°C° 0.3 mm 9 m/S 746 mmHg 83%
01:00 +12°C° 0.3 mm 9 m/S 746 mmHg 81%
02:00 +12°C° 0.3 mm 9 m/S 747 mmHg 80%
03:00 +12°C° 0.3 mm 9 m/S 747 mmHg 79%
04:00 +12°C° 0.3 mm 9 m/S 748 mmHg 79%
05:00 +12°C° 0.3 mm 8 m/S 748 mmHg 79%
06:00 +12°C° 0.3 mm 8 m/S 749 mmHg 80%
07:00 +12°C° 0.4 mm 8 m/S 750 mmHg 78%
08:00 +13°C° 0.4 mm 8 m/S 750 mmHg 76%
09:00 +13°C° 0.4 mm 8 m/S 750 mmHg 74%
10:00 +13°C° 0.3 mm 8 m/S 751 mmHg 73%
11:00 +15°C° 0.3 mm 9 m/S 751 mmHg 71%
12:00 +15°C° 0.3 mm 9 m/S 752 mmHg 70%
13:00 +15°C° 0.2 mm 8 m/S 752 mmHg 69%
14:00 +15°C° 0.2 mm 8 m/S 752 mmHg 68%
15:00 +15°C° 0.2 mm 7 m/S 752 mmHg 68%
16:00 +14°C° 0 mm 7 m/S 753 mmHg 70%
17:00 +13°C° 0 mm 6 m/S 753 mmHg 73%
18:00 +12°C° 0 mm 5 m/S 753 mmHg 75%
19:00 +12°C° 0 mm 5 m/S 753 mmHg 77%
20:00 +10°C° 0 mm 5 m/S 754 mmHg 78%
21:00 +11°C° 0 mm 4 m/S 754 mmHg 80%
22:00 +11°C° 0 mm 4 m/S 754 mmHg 82%
23:00 +11°C° 0 mm 4 m/S 754 mmHg 84%
Mehr zeigen

We Need Your Consent

Meteoprog and our Service Providers may store and access personal data such as cookies, device identifiers or other similar technologies on your device and process such data to personalise content and ads, as well as provide social media features and to analyse the traffic.

  • Store and/or access information on your device

    Cookies, device identifiers or other information can be stored or accessed on your device for the purposes indicated above.

  • Personalised ads and content, ad and content measurement, audience insights, and products development

    Ads and content can be personalised based on a profile. More data can be added to better personalise ads and content. Ad and content performance can be measured. Insights about the audience who saw the ads and content can be derived. Such data can be used to develop or improve user’s experience, systems and software.

By clicking ‘I Agree’ you will allow the use of indicated cookies, device identifiers, web beacons or other similar technologies. Your settings can be changed in the browser on your device.

For certain purposes, legitimate interests may be relied on, rather than consent. You can read more about this in our Privacy and Cookie Policy.